Regional Weather Roundup
Issued by NWS

Home | Current Version | Previous Version | Graphics & Text | Print | Product List | Glossary On
Versions: 1 2 3 4 5 6 7 8 9 10 11 12 13 14 15 16 17 18 19 20 21 22 23 24 25 26 27 28 29 30 31 32 33 34 35 36 37 38 39 40 41 42 43 44 45 46 47 48 49 50
000
ASUS44 KMEG 201600
RWRTN
TENNESSEE HOURLY STATE WEATHER ROUNDUP
NATIONAL WEATHER SERVICE MEMPHIS TN
1100 AM CDT MON OCT 20 2014

TNZ002-004-019-021-049-052-054-088>092-201700-
WEST TENNESSEE

CITY           SKY/WX    TMP DP  RH WIND       PRES   REMARKS
MEMPHIS INTL   MOSUNNY   65  49  56 SW8       30.10F
NWS MEMPHIS      N/A     65 N/A N/A MISG        N/A
JACKSON        PTSUNNY   62  50  64 SW7       30.09F
DYERSBURG      PTSUNNY   61  45  55 SW9       30.09F
UNION CITY     MOSUNNY   59  50  72 SW8       30.06F
PARIS          MOSUNNY   55  48  76 SW9       30.07F
LEXINGTON      MOSUNNY   57  50  77 SW3       30.08F
SAVANNAH       SUNNY     64  54  68 SW6       30.10S
$$

TNZ008-025-027-028-033-062-065-066-201700-
NORTH MIDDLE TENNESSEE

CITY           SKY/WX    TMP DP  RH WIND       PRES   REMARKS
NASHVILLE      PTSUNNY   65  48  54 W9        30.08F
CLARKSVILLE    CLOUDY    58  49  72 S7        30.06F
COOKEVILLE     SUNNY     64  52  63 W5        30.08F
CROSSVILLE     MOSUNNY   61  46  57 W8        30.09F
$$

TNZ061-075-076-078-094-096-097-201700-
SOUTH MIDDLE TENNESSEE

CITY           SKY/WX    TMP DP  RH WIND       PRES   REMARKS
TULLAHOMA      SUNNY     63  48  59 SW6       30.10F
WINCHESTER     SUNNY     63  50  63 W3        30.10S
MCMINNVILLE    SUNNY     63  54  72 CALM      30.09F
SHELBYVILLE    SUNNY     64  52  63 W5        30.10S
$$

TNZ017-018-042-046-047-201700-
NORTHEAST TENNESSEE

CITY           SKY/WX    TMP DP  RH WIND       PRES   REMARKS
TRI CITIES     MOSUNNY   60  47  61 SW8       30.10F
ELIZABETHTON   SUNNY     59  45  58 SW5       30.10F
$$

TNZ012-013-036-069-073-074-201700-
CENTRAL EAST TENNESSEE

CITY           SKY/WX    TMP DP  RH WIND       PRES   REMARKS
KNOXVILLE      MOSUNNY   60  51  72 VRB3      30.09F
OAK RIDGE      MOSUNNY   61  48  62 W5        30.10F
GATLINBURG     SUNNY     61  48  63 N3        30.08F
MORRISTOWN     SUNNY     61  48  63 SW9       30.10F
$$

TNZ083-085-099-201700-
SOUTHEAST TENNESSEE

CITY           SKY/WX    TMP DP  RH WIND       PRES   REMARKS
CHATTANOOGA    MOSUNNY   62  50  64 VRB3      30.10F
$$

SKY/WX REPORTED AS FAIR MEANS FEW OR NO CLOUDS BELOW
12 THOUSAND FEET.




USA.gov is the U.S. government's official web portal to all federal, state and local government web resources and services.